www.pogodaiklimat.ru

Погода и климат >> Архив погоды >> Дания >> Эсбьерг


ПОГОДА в Эсбьерге

  • Прогноз погоды в Эсбьерге
  • Монитор погоды в Эсбьерге

АРХИВ ПОГОДЫ в Эсбьерге

Время (UTC), дата Ветер
(напр.,м/с)
 
Видим.   Явления Облачность Т
(С)
Тd
(С)
f
(%)
Тe
(С)
Тes
(С)
Комфортность P
(гПа)
Po
(гПа)
Тmin
(С)
Tmax
(С)
R
(мм)
R24
(мм)
S
(см)
01 14.07 З 4 25 км н/о +13.1 +10.9 86 +11 +11 1016.3 1012.7
02 14.07 З 4 18 км н/о +13.0 +11.2 89 +11 +11 1015.9 1012.4
04 14.07 З 4 13 км н/о +12.8 +11.4 91 +11 +11 1015.8 1012.3
05 14.07 З 3 10 км н/о +12.7 +11.7 94 +11 +11 1015.8 1012.2
07 14.07 З 3 14 км н/о +13.3 +12.2 93 +12 +12 1016.2 1012.6
08 14.07 З 4 18 км н/о +13.8 +12.0 89 +12 +12 1016.3 1012.8
10 14.07 СЗ 4 14 км н/о +14.7 +12.7 88 +14 +14 1016.7 1013.2
11 14.07 З 4 17 км н/о +15.1 +12.5 84 +14 +14 1016.7 1013.2
13 14.07 З 5 16 км н/о +15.2 +12.5 84 +14 +14 1016.9 1013.4
14 14.07 З 5 18 км н/о +15.3 +12.5 83 +14 +14 1017.0 1013.5
16 14.07 СЗ 5 23 км н/о +14.9 +11.6 81 +13 +13 1017.0 1013.5
17 14.07 СЗ 5 18 км н/о +14.1 +11.4 84 +12 +12 1017.1 1013.6
19 14.07 СЗ 4 22 км н/о +13.3 +10.7 84 +12 +12 1017.0 1013.5
20 14.07 СЗ 5 23 км н/о +12.9 +10.3 84 +11 +11 1017.1 1013.6
22 14.07 З 4 25 км н/о +12.5 +9.9 84 +11 +11 1017.2 1013.7
23 14.07 СЗ 4 27 км н/о +12.5 +9.9 84 +11 +11 1017.0 1013.5
01 15.07 З 5 29 км н/о +12.4 +9.6 83 +10 +10 1016.4 1012.9
02 15.07 З 4 30 км н/о +12.3 +9.3 82 +10 +10 1016.0 1012.5
04 15.07 З 5 29 км н/о +12.4 +9.2 81 +10 +10 1015.6 1012.0
05 15.07 З 4 28 км н/о +12.5 +9.5 82 +11 +11 1015.2 1011.7
07 15.07 З 5 19 км н/о +13.3 +10.2 81 +11 +11 1014.9 1011.3
08 15.07 З 6 20 км н/о +13.5 +10.4 82 +11 +11 1014.7 1011.2
10 15.07 З 7 19 км н/о +14.5 +11.1 80 +12 +12 1014.2 1010.7
11 15.07 З 6 18 км н/о +14.7 +11.4 81 +13 +13 1014.3 1010.7
13 15.07 З 7 19 км н/о +15.8 +12.0 78 +14 +14 1014.0 1010.5 5
14 15.07 З 8 18 км н/о +16.5 +12.5 77 +15 +15 1014.1 1010.6
16 15.07 СЗ 7 20 км н/о +15.8 +12.5 81 +14 +14 1014.1 1010.6
17 15.07 СЗ 6 20 км н/о +15.1 +12.1 82 +14 +14 1014.2 1010.7
19 15.07 СЗ 6 21 км н/о +14.0 +11.8 87 +12 +12 1014.5 1011.0
20 15.07 СЗ 7 20 км н/о +13.8 +11.9 88 +11 +11 1014.6 1011.1
22 15.07 СЗ 5 23 км н/о +13.5 +12.1 91 +11 +11 1014.6 1011.1
23 15.07 З 6 35 км н/о +13.6 +11.9 89 +11 +11 1014.4 1010.9
01 16.07 З 4 18 км н/о +13.3 +12.5 95 +12 +12 1014.1 1010.6
02 16.07 З 5 8000 м дымка н/о +13.2 +12.6 96 +11 +11 1013.8 1010.3
04 16.07 З 6 14 км н/о +13.3 +12.3 94 +11 +11 1013.4 1009.9
05 16.07 З 6 30 км н/о +13.6 +12.2 91 +11 +11 1013.4 1009.9
07 16.07 З 6 23 км н/о +14.4 +12.2 87 +13 +13 1013.4 1009.9
08 16.07 СЗ 7 22 км н/о +14.6 +12.0 84 +13 +13 1013.5 1010.0
10 16.07 СЗ 6 19 км н/о +16.5 +13.5 82 +15 +15 1013.9 1010.4
11 16.07 З 7 19 км н/о +16.4 +13.3 82 +15 +15 1014.1 1010.6
14 16.07 СЗ 6 24 км н/о +17.1 +14.1 83 +16 +16 1014.6 1011.0
16 16.07 СЗ 6 22 км н/о +15.9 +13.4 85 +14 +14 1014.8 1011.3
17 16.07 СЗ 5 24 км н/о +15.8 +13.1 84 +15 +15 1014.9 1011.4
19 16.07 СЗ 5 24 км н/о +13.8 +12.4 91 +12 +12 1015.2 1011.7
20 16.07 СЗ 5 27 км н/о +13.3 +12.0 92 +11 +11 1015.5 1012.0
22 16.07 СЗ 4 35 км н/о +12.8 +11.5 92 +11 +11 1015.9 1012.4
23 16.07 СЗ 3 30 км н/о +12.6 +11.5 93 +11 +11 1016.0 1012.5
01 17.07 СЗ 3 40 км н/о +12.5 +11.1 91 +11 +11 1016.0 1012.5
02 17.07 СЗ 2 30 км н/о +11.9 +10.9 94 +11 +11 1015.8 1012.2
04 17.07 СЗ 1 26 км н/о +12.2 +11.3 94 +12 +12 1015.7 1012.2
05 17.07 С 1 26 км н/о +12.5 +11.5 94 +12 +12 1015.4 1011.9
07 17.07 З 2 35 км н/о +13.8 +11.3 85 +14 +14 1015.6 1012.0
08 17.07 СЗ 1 30 км н/о +15.1 +11.6 80 +16 +16 1015.6 1012.1
10 17.07 ЮЗ 3 40 км н/о +18.0 +12.4 70 +18 +18 1015.4 1011.9
11 17.07 З 2 40 км н/о +18.6 +13.3 71 +20 +20 1015.5 1011.9
13 17.07 З 3 40 км н/о +19.2 +13.2 68 +21 +21 комфорт 1015.0 1011.5
14 17.07 ЮЗ 5 40 км н/о +17.6 +12.3 71 +17 +17 1014.9 1011.4
16 17.07 З 4 45 км н/о +17.7 +13.1 74 +17 +17 1014.5 1011.0
17 17.07 З 4 45 км н/о +16.8 +12.9 78 +16 +16 1014.2 1010.7
19 17.07 З 3 50 км н/о +15.0 +12.9 87 +14 +14 1014.4 1010.8
22 17.07 ЮЗ 1 50 км н/о +14.2 +13.0 92 +15 +15 1014.1 1010.6
23 17.07 ЮЗ 1 50 км н/о +14.2 +13.0 92 +15 +15 1014.0 1010.5
01 18.07 Ю 1 19 км н/о +13.7 +12.8 94 +15 +15 1013.5 1010.0
02 18.07 Ю 1 12 км н/о +13.3 +12.6 96 +14 +14 1013.2 1009.7
04 18.07 ЮВ 2 25 км н/о +13.9 +13.0 94 +14 +14 1012.8 1009.3
05 18.07 ЮВ 2 25 км н/о +13.8 +13.0 95 +13 +13 1012.9 1009.4
07 18.07 Ю 2 40 км н/о +15.0 +13.2 89 +15 +15 1012.5 1009.0
08 18.07 ЮВ 2 40 км н/о +16.9 +13.9 82 +17 +17 1012.2 1008.7
10 18.07 Ю 3 35 км н/о +19.5 +13.7 69 +21 +21 комфорт 1011.9 1008.4
13 18.07 Ю 4 40 км н/о +20.5 +13.2 63 +23 +23 комфорт 1011.7 1008.1
14 18.07 Ю 4 50 км н/о +20.4 +13.3 64 +23 +23 комфорт 1011.5 1008.0
16 18.07 Ю 3 50 км в посл. час дождь {ливн. осадки} н/о +19.6 +13.4 67 +21 +21 комфорт 1010.9 1007.4
17 18.07 ЮВ 2 50 км н/о +19.9 +13.3 66 +22 +22 комфорт 1010.5 1007.0
19 18.07 ЮВ 1 45 км н/о +18.8 +14.1 74 +21 +21 комфорт 1010.2 1006.7
20 18.07 В 2 50 км н/о +17.7 +14.1 79 +18 +18 1010.4 1006.9
22 18.07 ЮЗ 3 35 км слаб. дождь н/о +17.2 +14.5 84 +17 +17 1010.7 1007.2
23 18.07 З 1 5000 м слаб. дождь н/о +15.9 +15.2 96 +17 +17 1010.8 1007.3
01 19.07 В 2 4600 м в посл. час морось {ливн. осадки} н/о +15.6 +15.4 99 +16 +16 1010.2 1006.7
02 19.07 СВ 1 2800 м дымка н/о +15.2 +14.9 98 +16 +16 1010.3 1006.8
04 19.07 С 1 1800 м морось {ливн. осадки, дождь} н/о +15.1 +15.0 99 +16 +16 1010.3 1006.9
05 19.07 СЗ 2 5000 м дымка н/о +15.2 +15.2 100 +15 +15 1010.5 1007.0
07 19.07 З 2 4600 м в посл. час морось {ливн. осадки} н/о +15.7 +15.6 99 +16 +16 1011.4 1007.9
08 19.07 З 2 15 км в посл. час морось {ливн. осадки} н/о +15.8 +15.5 98 +16 +16 1011.7 1008.2
10 19.07 СЗ 3 45 км н/о +18.3 +14.2 77 +19 +19 1012.3 1008.8
11 19.07 З 4 35 км н/о +19.3 +12.3 64 +21 +21 комфорт 1012.5 1009.0
13 19.07 З 4 50 км н/о +20.1 +11.5 58 +22 +22 комфорт 1013.1 1009.7
14 19.07 З 4 40 км н/о +20.2 +12.9 63 +22 +22 комфорт 1013.4 1010.0
17 19.07 З 4 40 км н/о +18.4 +11.7 65 +19 +19 1013.7 1010.2
19 19.07 ЮЗ 2 50 км н/о +16.6 +12.7 78 +17 +17 1013.7 1010.3
20 19.07 ЮВ 1 50 км н/о +14.9 +12.5 86 +16 +16 1014.0 1010.6
22 19.07 ЮВ 2 40 км н/о +13.0 +12.0 94 +12 +12 1013.9 1010.4
23 19.07 ЮВ 2 30 км н/о +13.6 +12.5 93 +13 +13 1013.6 1010.1
01 20.07 ЮВ 2 45 км н/о +14.3 +12.6 90 +14 +14 1013.0 1009.5
02 20.07 В 2 40 км н/о +14.4 +12.5 88 +14 +14 1012.8 1009.4
04 20.07 В 3 50 км н/о +15.1 +12.3 83 +15 +15 1012.0 1008.5
05 20.07 ЮВ 3 50 км слаб. ливневой дождь н/о +15.4 +12.3 82 +15 +15 1011.6 1008.2
07 20.07 ЮВ 4 50 км н/о +17.3 +12.6 74 +17 +17 1011.0 1007.6
08 20.07 ЮВ 3 45 км н/о +18.6 +13.4 72 +20 +20 1010.7 1007.2
10 20.07 ЮВ 5 30 км н/о +22.5 +14.2 59 +26 +26 жарко 1009.8 1006.4
11 20.07 ЮВ 5 35 км н/о +23.2 +14.5 58 +27 +27 душно 1009.5 1006.1
13 20.07 Ю 4 30 км слаб. ливневой дождь н/о +22.2 +15.6 66 +26 +26 душно 1009.2 1005.7
14 20.07 ЮЗ 5 30 км {ливн. осадки} н/о +20.6 +15.7 73 +24 +24 комфорт 1009.5 1006.0
16 20.07 Ю 2 13 км слаб. ливневой дождь н/о +18.1 +17.6 97 +19 +19 1009.8 1006.4
17 20.07 Ю 2 11 км {ливн. осадки} н/о +18.0 +17.1 94 +19 +19 1009.5 1006.1
19 20.07 Ю 2 14 км н/о +18.0 +17.0 94 +19 +19 1009.5 1006.1
20 20.07 Ю 2 24 км н/о +17.5 +16.3 93 +18 +18 1009.7 1006.3
22 20.07 Ю 3 21 км н/о +16.9 +16.4 97 +17 +17 1009.5 1006.1
23 20.07 Ю 3 13 км слаб. морось {дождь} н/о +17.0 +16.7 98 +17 +17 1009.7 1006.3

 

Местоположение метеостанции Эсбьерг (Дания): широта 55.53 долгота 8.57 высота над уровнем моря 29 м.

В архиве по умолчанию представлена погода в Эсбьерге за последнюю неделю. Архивные данные за месяц целиком и за предыдущие месяцы, начиная с января 2011 года, Вы можете получить, выбрав интересующий диапазон дат из раскрывающегося списка и нажав кнопку "Ввод!".


*Определитесь, кто Вы:
робот инопланетянин человек

Внимание! Время в таблицах - всемирное. Для получения местного времени необходимо прибавить поправку, которая равна 1 ч.

Смотрите также архив погоды в соседних городах и на ближайших метеорологических станциях:

Погода в Вестер Ведстед (Дания) (27 км)
Погода на Мысе Blaavandshuk (Дания) (31 км)
Погода в Аскове (Дания) (35 км)
Погода в Рёмё (Дания) (39 км)
Погода в Биллунде (Дания) (44 км)
Погода в Силструпе (Дания) (45 км)
Погода в Боррисе (Дания) (49 км)
Погода в Вамдрупе (Дания) (49 км)
Погода в Скрыдструпе (Дания) (55 км)
Погода в Листе (Германия) (58 км)

Пояснения к столбцам:

Ветер - указаны скорость ветра в м/с - средняя за 10 мин, порывы в срок и между сроками (в фигурных скобках) и направление, откуда дует ветер: С - северный, СВ - северо-восточный, В - восточный, ЮВ - юго-восточный, Ю - южный, ЮЗ - юго-западный, З - западный, СЗ - северо-западный.
Видимость - горизонтальная дальность видимости в метрах или километрах. При видимости от 1 до 10 км при отсутствии осадков обычно наблюдается дымка, при ухудшении видимости до 1 км и менее - туман. В сухую погоду видимость может ухудшаться дымом, пылью или мглою.
Явления - указаны атмосферные явления, наблюдавшиеся в срок или в последний час перед сроком; фигурными скобками обозначены явления, наблюдавшиеся между сроками (за 1-3 часа до срока); квадратными скобками обозначены град или гололедные отложения с указанием их диаметра в мм.
Облачность - указаны через наклонную черту общая и нижняя облачность в баллах и высота нижней границы облаков в метрах; квадратными скобками обозначены формы облаков: Ci - перистые, Cs - перисто-слоистые, Cc - перисто-кучевые, Ac - высококучевые, As - высокослоистые, Sc - слоисто-кучевые, Ns - слоисто-дождевые, Cu - кучевые, Cb - кучево-дождевые. Подробнее классификацию облаков см. в Атласе облаков (PDF).
T - Температура воздуха - температура, измеренная на высоте 2 м над землей.
Td - Температура точки росы - температура, при понижении до которой содержащийся в воздухе водяной пар достигнет насыщения.
f - Относительная влажность воздуха - влажноcть воздуха, измеренная на высоте 2 м над землей.
Te - Эффективная температура - температура, которую ощущает одетый по сезону человек в тени. Характеристика душности погоды. При расчете учитывается влияние влажности воздуха и скорости ветра на теплоощущения человека.
Tes - Эффективная температура на солнце - температура, которую ощущает человек, с поправкой на солнечный нагрев. Характеристика знойности погоды. Зависит от высоты солнца над горизонтом, облачности и скорости ветра. Ночью, в пасмурную погоду, а также при ветре 12 м/с и более поправка равна нулю.
P - Атмосферное давление - приведенное к уровню моря атмосферное давление.
Po - Атмосферное давление - измеренное на уровне метеостанции атмосферное давление.
Tmin - Минимальная температура - минимум температуры воздуха на высоте 2 м над землей.
Tmax - Максимальная температура - максимум температуры воздуха на высоте 2 м над землей.
R - Количество осадков - Количество выпавших осадков за период времени, мм. При наведении курсора мыши на число - период времени, за который выпало указанное количество осадков.
R24 - Количество осадков - Количество выпавших осадков за 24 часа, мм.
S - Снежный покров - Высота снежного покрова, см. При наведении курсора мыши на число - состояние снежного покрова и степень покрытия местности в баллах.